Cairns, Australia

8:09 AM AEST on January 17, 2017 (GMT +1000)
Cairns International

Weather History for YBCS - February, 2013

Change the Weather History Date:

Monday, February 25, 2013

  Actual Average Record
Temperature  
Mean Temperature 81 °F -  
Max Temperature 88 °F 87 °F 91 °F (2005)
Min Temperature 74 °F 73 °F 73 °F (1999)
Cooling Degree Days 16    
Growing Degree Days 31 (Base 50)    
Moisture  
Dew Point 74 °F    
Average Humidity 77    
Maximum Humidity 95    
Minimum Humidity 54    
Precipitation  
Precipitation 0.00 in 0.58 in - ()
Sea Level Pressure  
Sea Level Pressure 29.74 in    
Wind  
Wind Speed 5 mph ()    
Max Wind Speed 13 mph    
Max Gust Speed -    
Visibility 7.6 miles    
Events      
Averages and records for this station are not official NWS values.
T = Trace of Precipitation, MM = Missing Value Source: Averaged Metar Reports

Daily Weather History Graph

Daily Weather History Graph

Search for Another Location

Airport or City:

Trip Planner

Search our weather history database for the weather conditions in past years. The results will help you decide how hot, cold, wet, or windy it might be!

Date:

Astronomy

Feb. 25, 2013 Rise Set
Actual Time 6:15 AM AEST 6:44 PM AEST
Civil Twilight 5:53 AM AEST 7:06 PM AEST
Nautical Twilight 5:27 AM AEST 7:32 PM AEST
Astronomical Twilight 5:01 AM AEST 7:58 PM AEST
Moon 6:07 PM AEST (2/25) 5:24 AM AEST (2/25)
Length of Visible Light 13h 13m
Length of Day
12h 29m
Waxing Gibbous, 99% of the Moon is Illuminated
Feb 25
Waxing Gibbous
Feb 26
Full
Mar 5
Last Quarter
Mar 12
New
Mar 20
First Quarter

Hourly Weather History & Observations

Time (AEST) Temp. Heat Index Dew Point Humidity Pressure Visibility Wind Dir Wind Speed Gust Speed Precip Events Conditions
12:00 AM 77 °F - 75 °F 90% 29.80 in - WSW 4.6 mph - -  
12:00 AM 77.0 °F - 75.2 °F 94% 29.80 in 6.2 mi WSW 4.6 mph - N/A   Scattered Clouds
12:30 AM 77.0 °F - 75.2 °F 94% 29.77 in 6.2 mi West 5.8 mph - N/A   Mostly Cloudy
1:00 AM 77 °F - 75 °F 91% 29.78 in - SSW 2.3 mph - -  
1:00 AM 77.0 °F - 75.2 °F 94% 29.77 in 6.2 mi SSW 2.3 mph - N/A   Scattered Clouds
1:30 AM 77.0 °F - 75.2 °F 94% 29.74 in 6.2 mi SSE 4.6 mph - N/A   Scattered Clouds
2:00 AM 77.0 °F - 75.2 °F 94% 29.74 in 6.2 mi SE 5.8 mph - N/A   Scattered Clouds
2:30 AM 75.2 °F - 73.4 °F 94% 29.74 in 6.2 mi South 2.3 mph - N/A   Partly Cloudy
3:00 AM 76 °F - 74 °F 91% 29.75 in - SSW 2.3 mph - -  
3:00 AM 75.2 °F - 73.4 °F 94% 29.74 in 6.2 mi SSW 2.3 mph - N/A   Partly Cloudy
3:30 AM 75.2 °F - 73.4 °F 94% 29.74 in 6.2 mi South 2.3 mph - N/A   Partly Cloudy
4:00 AM 75 °F - 74 °F 95% 29.75 in - Calm Calm - -  
4:00 AM 75.2 °F - 73.4 °F 94% 29.74 in 6.2 mi Calm Calm - N/A   Partly Cloudy
4:30 AM 77.0 °F - 71.6 °F 83% 29.74 in 6.2 mi South 5.8 mph - N/A   Partly Cloudy
5:00 AM 75.2 °F - 73.4 °F 94% 29.74 in 6.2 mi WSW 1.2 mph - N/A   Partly Cloudy
5:30 AM 75.2 °F - 73.4 °F 94% 29.74 in 6.2 mi WSW 3.5 mph - N/A   Partly Cloudy
6:00 AM 76 °F - 72 °F 84% 29.75 in 19 mi SSE 9.2 mph - -   Partly Cloudy
6:00 AM 75.2 °F - 71.6 °F 89% 29.74 in 6.2 mi SSE 9.2 mph - N/A   Partly Cloudy
6:30 AM 75.2 °F - 73.4 °F 94% 29.74 in 6.2 mi Calm Calm - N/A   Partly Cloudy
7:00 AM 76 °F - 74 °F 90% 29.77 in - Calm Calm - -  
7:00 AM 77.0 °F - 73.4 °F 89% 29.77 in 6.2 mi Calm Calm - N/A   Partly Cloudy
7:30 AM 78.8 °F - 73.4 °F 83% 29.77 in 6.2 mi SE 8.1 mph - N/A   Partly Cloudy
8:00 AM 80.6 °F 85.4 °F 73.4 °F 79% 29.77 in 6.2 mi SSE 9.2 mph - N/A   Partly Cloudy
8:30 AM 82.4 °F 87.2 °F 71.6 °F 70% 29.77 in 6.2 mi NNW 2.3 mph - N/A   Partly Cloudy
9:00 AM 84 °F - 74 °F 64% 29.80 in 19 mi SSE 8.1 mph - -   Partly Cloudy
9:00 AM 84.2 °F 90.9 °F 73.4 °F 70% 29.80 in 6.2 mi SSE 8.1 mph - N/A   Partly Cloudy
9:30 AM 84.2 °F 90.9 °F 73.4 °F 70% 29.80 in 6.2 mi South 8.1 mph - N/A   Partly Cloudy
10:00 AM 86 °F - 72 °F 55% 29.81 in - SE 6.9 mph - -  
10:00 AM 86.0 °F 91.8 °F 71.6 °F 62% 29.80 in 6.2 mi SE 6.9 mph - N/A   Partly Cloudy
10:30 AM 86.0 °F 91.8 °F 71.6 °F 62% 29.80 in 6.2 mi SE 2.3 mph - N/A   Partly Cloudy
11:00 AM 86.0 °F 93.4 °F 73.4 °F 66% 29.77 in 6.2 mi NE 10.4 mph - N/A   Partly Cloudy
11:30 AM 87.8 °F 97.6 °F 75.2 °F 66% 29.77 in 6.2 mi ENE 11.5 mph - N/A   Partly Cloudy
12:00 PM 87 °F - 77 °F 64% 29.77 in 19 mi NE 11.5 mph - -   Partly Cloudy
12:00 PM 87.8 °F 99.7 °F 77.0 °F 70% 29.77 in 6.2 mi NE 11.5 mph - N/A   Partly Cloudy
12:30 PM 87.8 °F 97.6 °F 75.2 °F 66% 29.74 in 6.2 mi NE 10.4 mph - N/A   Partly Cloudy
1:00 PM 87 °F - 75 °F 60% 29.75 in - NE 11.5 mph - -  
1:00 PM 87.8 °F 97.6 °F 75.2 °F 66% 29.74 in 6.2 mi NE 11.5 mph - N/A   Partly Cloudy
1:30 PM 86.0 °F 95.1 °F 75.2 °F 70% 29.71 in 6.2 mi NE 10.4 mph - N/A   Partly Cloudy
2:00 PM 87.8 °F 97.6 °F 75.2 °F 66% 29.71 in 6.2 mi NE 11.5 mph - N/A   Partly Cloudy
2:30 PM 87.8 °F 97.6 °F 75.2 °F 66% 29.71 in 6.2 mi NE 10.4 mph - N/A   Partly Cloudy
3:00 PM 87 °F - 76 °F 62% 29.70 in 19 mi NE 12.7 mph - -   Partly Cloudy
3:00 PM 87.8 °F 97.6 °F 75.2 °F 66% 29.68 in 6.2 mi NE 12.7 mph - N/A   Partly Cloudy
3:30 PM 87.8 °F 97.6 °F 75.2 °F 66% 29.68 in - NE 12.7 mph - N/A   Clear
4:00 PM 88 °F - 74 °F 54% 29.70 in - ENE 12.7 mph - -  
4:00 PM 87.8 °F 95.6 °F 73.4 °F 62% 29.68 in 6.2 mi ENE 12.7 mph - N/A   Scattered Clouds
4:30 PM 86.0 °F 95.1 °F 75.2 °F 70% 29.68 in 6.2 mi South 9.2 mph - N/A   Scattered Clouds
5:00 PM 86.0 °F 93.4 °F 73.4 °F 66% 29.68 in 6.2 mi SE 9.2 mph - N/A   Scattered Clouds
5:30 PM 84.2 °F 90.9 °F 73.4 °F 70% 29.68 in 6.2 mi SE 10.4 mph - N/A   Scattered Clouds
6:00 PM 84 °F - 73 °F 61% 29.70 in 19 mi ESE 8.1 mph - -   Partly Cloudy
6:00 PM 84.2 °F 90.9 °F 73.4 °F 70% 29.68 in 6.2 mi ESE 8.1 mph - N/A   Scattered Clouds
6:30 PM 84.2 °F 89.6 °F 71.6 °F 66% 29.71 in 6.2 mi SSE 9.2 mph - N/A   Scattered Clouds
7:00 PM 83 °F - 73 °F 65% 29.72 in - SE 6.9 mph - -  
7:00 PM 82.4 °F 88.2 °F 73.4 °F 74% 29.71 in 6.2 mi SE 6.9 mph - N/A   Scattered Clouds
7:30 PM 82.4 °F 88.2 °F 73.4 °F 74% 29.71 in 6.2 mi SSE 4.6 mph - N/A   Scattered Clouds
8:00 PM 80.6 °F 85.4 °F 73.4 °F 79% 29.71 in 6.2 mi South 3.5 mph - N/A   Scattered Clouds
8:30 PM 80.6 °F 85.4 °F 73.4 °F 79% 29.74 in 6.2 mi Calm Calm - N/A   Scattered Clouds
9:00 PM 80 °F - 74 °F 76% 29.75 in 19 mi Calm Calm - -   Partly Cloudy
9:00 PM 80.6 °F 85.4 °F 73.4 °F 79% 29.74 in 6.2 mi Calm Calm - N/A   Partly Cloudy
9:30 PM 78.8 °F - 73.4 °F 83% 29.74 in 6.2 mi South 4.6 mph - N/A   Partly Cloudy
10:00 PM 79 °F - 74 °F 79% 29.78 in - SE 4.6 mph - -  
10:00 PM 78.8 °F - 73.4 °F 83% 29.77 in 6.2 mi SE 4.6 mph - N/A   Partly Cloudy
10:30 PM 78.8 °F - 73.4 °F 83% 29.77 in 6.2 mi South 2.3 mph - N/A   Partly Cloudy
11:00 PM 78.8 °F - 73.4 °F 83% 29.77 in 6.2 mi Calm Calm - N/A   Partly Cloudy
11:30 PM 78.8 °F - 73.4 °F 83% 29.77 in 6.2 mi Calm Calm - N/A   Partly Cloudy